Flag Weather past 2 weeks in Marrakech, Morocco

Now
61 °F

Broken clouds.


Feels Like: 61 °F
Forecast: 59 / 67 °F
Wind: 16 mph from West

Location: Marrakech Airport

Current Time: Nov 24, 2014 at 2:26:23 PM

Latest Report: Nov 24, 2014 at 2:00 PM


Visibility: N/A

Pressure: 30.01 "Hg

Humidity: 72%

Dew point: 52 °F

Location of MarrakechLocation

Historic Weather in Marrakech — Graph

°F

Marrakech temperature yesterday

Maximum temperature yesterday: 72 °F (at 12:00 PM)
Minimum temperature yesterday: 57 °F (at 4:30 AM)
Average temperature yesterday: 63 °F

Past Weeks' High & Low Weather Summary

 TemperatureHumidityPressure
High81 °F (Nov 19, 3:30 PM)100% (Nov 9, 1:00 PM)30.09 "Hg (Nov 9, 1:00 PM)
Low48 °F (Nov 10, 6:00 AM)39% (Nov 19, 3:30 PM)29.68 "Hg (Nov 21, 4:00 AM)
Average63 °F79%29.94 "Hg
* Reported Nov 9 1:00 PM — Nov 24 1:30 PM, Marrakech, Weather by CustomWeather, © 2014

Note: Actual official high and low records may vary slightly from our data, if they occured in-between our weather recording intervals... More about our weather records

Advertising

Marrakech weather history for previous 24 hours

 ConditionsComfort  
Time TempWeatherWind HumidityBarometerVisibility
1:30 PM
Nov 24
61 °FBroken clouds.16 mph72%30.04 "HgN/A
1:00 PM61 °FBroken clouds.13 mph72%30.04 "HgN/A
12:30 PM61 °FBroken clouds.14 mph72%30.04 "HgN/A
12:00 PM61 °FBroken clouds.13 mph77%30.07 "HgN/A
11:30 AM61 °FBroken clouds.12 mph77%30.07 "HgN/A
11:00 AM59 °FScattered clouds.12 mph77%30.07 "HgN/A
10:30 AM59 °FBroken clouds.12 mph82%30.07 "HgN/A
10:00 AM57 °FBroken clouds.12 mph88%30.07 "HgN/A
9:30 AM55 °FBroken clouds.9 mph100%30.07 "HgN/A
9:00 AM55 °FBroken clouds.8 mph100%30.07 "HgN/A
8:30 AM54 °FBroken clouds.9 mph100%30.07 "Hg5 mi
8:00 AM54 °FBroken clouds.8 mph100%30.04 "Hg5 mi
7:00 AM55 °FRain. Broken clouds.9 mph100%30.01 "Hg3 mi
6:30 AM55 °FRain. Broken clouds.13 mph100%30.01 "Hg3 mi
6:00 AM57 °FRain. Partly cloudy.12 mph100%29.98 "Hg3 mi
5:30 AM59 °FPartly cloudy.13 mph94%29.98 "HgN/A
5:00 AM59 °FPartly cloudy.16 mph94%29.95 "HgN/A
4:30 AM59 °FPartly cloudy.10 mph88%29.95 "HgN/A
4:00 AM59 °FPartly cloudy.8 mph88%29.98 "HgN/A
3:30 AM59 °FPartly cloudy.6 mph94%29.98 "HgN/A
3:00 AM59 °FPartly cloudy.8 mph94%29.98 "HgN/A
2:30 AM59 °FPartly cloudy.7 mph94%29.98 "HgN/A
2:00 AM59 °FPartly cloudy.5 mph94%30.01 "HgN/A
1:30 AM59 °FPassing clouds.5 mph94%30.01 "HgN/A
1:00 AM61 °FPassing clouds.6 mph88%30.01 "HgN/A
12:00 AM59 °FPassing clouds.5 mph94%30.01 "HgN/A
11:30 PM
Nov 23
59 °FPassing clouds.8 mph94%30.01 "HgN/A
11:00 PM59 °FPassing clouds.6 mph94%30.01 "HgN/A
10:30 PM59 °FPassing clouds.8 mph94%30.01 "HgN/A
10:00 PM61 °FPassing clouds.6 mph88%30.01 "HgN/A
9:30 PM61 °FPassing clouds.5 mph88%30.01 "HgN/A
9:00 PM63 °FPassing clouds.5 mph83%29.98 "HgN/A
8:30 PM63 °FPassing clouds.6 mph83%29.98 "HgN/A
8:00 PM63 °FPassing clouds.5 mph83%29.98 "HgN/A
7:30 PM61 °FPassing clouds.7 mph83%29.98 "HgN/A
7:00 PM63 °FPassing clouds.10 mph77%29.95 "HgN/A
6:30 PM64 °FPassing clouds.8 mph68%29.95 "HgN/A
6:00 PM66 °FPassing clouds.12 mph68%29.92 "HgN/A
5:30 PM68 °FPassing clouds.15 mph64%29.92 "HgN/A
5:00 PM70 °FPassing clouds.13 mph64%29.89 "HgN/A
4:30 PM72 °FPassing clouds.10 mph57%29.89 "HgN/A
4:00 PM72 °FScattered clouds.6 mph57%29.86 "HgN/A
3:30 PM72 °FScattered clouds.3 mph53%29.86 "HgN/A
3:00 PM72 °FScattered clouds.3 mph57%29.86 "HgN/A
2:30 PM72 °FScattered clouds.7 mph61%29.86 "HgN/A
2:00 PM70 °FScattered clouds.7 mph69%29.86 "HgN/A
Weather by CustomWeather, © 2014

See weather overviewHow to use our weather pages